Location: Kellogg
(38.0159°N, 90.0546°W)
Time: 14:30:27
(UTC+00:00)

Courier 1B - Pass Details

Date: 12 September 2024
Orbit: 962 x 1208 km, 28.3° (Epoch: 07 October)

Event Time Altitude Azimuth Distance (km) Brightness Sun altitude
Rises 01:45:05 0° 264° (W) 4,100 11.9 -18.4°
Reaches altitude 10° 01:48:23 10° 254° (WSW) 3,141 10.9 -19.0°
Maximum altitude 01:54:47 28° 199° (SSW) 2,081 9.2 -20.2°
Enters shadow 01:58:29 19° 159° (SSE) 2,471 9.2 -20.8°
Drops below altitude 10° 02:01:06 10° 144° (SE) 3,091 - -21.3°
Sets 02:04:19 0° 133° (SE) 4,023 - -21.9°
